Flag for Germany Weather past 2 weeks in Nuremberg, Bavaria, Germany

Now
19 °F

Passing clouds.


Feels Like: 19 °F
Forecast: 13 / 31 °F
Wind: 1 mph from North

Location: Nuernberg

Current Time: Dec 28, 2014 at 11:19:28 PM

Latest Report: Dec 28, 2014 at 10:20 PM


Visibility: N/A

Pressure: 30.39 "Hg

Humidity: 86%

Dew point: 16 °F

Location of NurembergLocation

Historic Weather in Nuremberg — Graph

°F

Nuremberg temperature yesterday

Maximum temperature yesterday: 30 °F (at 10:50 AM)
Minimum temperature yesterday: 25 °F (at 12:20 AM)
Average temperature yesterday: 28 °F

Past Weeks' High & Low Weather Summary

 TemperatureHumidityPressure
High54 °F (Dec 18, 9:20 PM)100% (Dec 14, 12:50 AM)30.45 "Hg (Dec 14, 12:50 AM)
Low14 °F (Dec 28, 8:50 PM)63% (Dec 28, 1:50 PM)29.47 "Hg (Dec 27, 6:20 PM)
Average40 °F88%30.07 "Hg
* Reported Dec 13 9:20 PM — Dec 28 9:50 PM, Nuremberg, Weather by CustomWeather, © 2014

Note: Actual official high and low records may vary slightly from our data, if they occured in-between our weather recording intervals... More about our weather records

Advertising

Nuremberg weather history for previous 24 hours

 ConditionsComfort  
Time TempWeatherWind HumidityBarometerVisibility
9:50 PM
Dec 28
18 °FPassing clouds.1 mph86%30.39 "HgN/A
9:20 PM16 °FPassing clouds.2 mph86%30.39 "HgN/A
8:50 PM14 °FPassing clouds.3 mph85%30.39 "HgN/A
8:20 PM16 °FPassing clouds.3 mph79%30.36 "HgN/A
7:50 PM16 °FClear.2 mph73%30.36 "Hg10 mi
7:20 PM16 °FClear.2 mph67%30.33 "Hg10 mi
6:50 PM18 °FClear.1 mph68%30.33 "Hg10 mi
6:20 PM18 °FClear.2 mph68%30.30 "Hg10 mi
5:50 PM18 °FPassing clouds.3 mph73%30.27 "HgN/A
5:20 PM18 °FPassing clouds.3 mph73%30.24 "HgN/A
4:50 PM19 °FClear.5 mph68%30.21 "Hg10 mi
4:20 PM19 °FPassing clouds.3 mph68%30.18 "HgN/A
3:50 PM21 °FSunny.3 mph63%30.15 "Hg10 mi
3:20 PM21 °FSunny.5 mph63%30.15 "Hg10 mi
2:50 PM21 °FSunny.7 mph63%30.12 "Hg10 mi
2:20 PM23 °FSunny.6 mph63%30.09 "Hg10 mi
1:50 PM23 °FSunny.7 mph63%30.07 "Hg10 mi
1:20 PM23 °FSunny.8 mph68%30.07 "Hg10 mi
12:50 PM23 °FPassing clouds.9 mph68%30.04 "HgN/A
12:20 PM23 °FSunny.8 mph74%30.04 "Hg10 mi
11:50 AM23 °FSunny.7 mph74%30.01 "Hg10 mi
11:20 AM23 °FSunny.6 mph80%29.98 "Hg10 mi
10:50 AM23 °FBroken clouds.9 mph80%29.98 "HgN/A
10:20 AM23 °FBroken clouds.7 mph80%29.95 "HgN/A
9:50 AM25 °FBroken clouds.7 mph80%29.92 "HgN/A
9:20 AM25 °FPartly sunny.6 mph80%29.89 "HgN/A
8:50 AM25 °FPartly sunny.5 mph86%29.86 "HgN/A
8:20 AM25 °FPartly sunny.8 mph86%29.83 "HgN/A
7:50 AM27 °FPassing clouds.7 mph80%29.83 "HgN/A
7:20 AM25 °FPartly cloudy.8 mph86%29.80 "HgN/A
6:50 AM25 °FPartly cloudy.6 mph86%29.77 "HgN/A
6:20 AM25 °FPartly cloudy.7 mph86%29.74 "HgN/A
5:50 AM25 °FPassing clouds.7 mph86%29.71 "HgN/A
5:20 AM27 °FPartly cloudy.7 mph80%29.71 "HgN/A
4:20 AM27 °FPartly cloudy.7 mph86%29.68 "HgN/A
3:50 AM27 °FPartly cloudy.10 mph86%29.65 "HgN/A
3:20 AM27 °FPartly cloudy.8 mph86%29.62 "HgN/A
2:50 AM27 °FLight snow. Mostly cloudy.10 mph93%29.62 "HgN/A
2:20 AM27 °FLight snow. Mostly cloudy.10 mph93%29.59 "Hg4 mi
1:50 AM27 °FLight snow. Mostly cloudy.6 mph93%29.59 "Hg4 mi
1:20 AM27 °FLight snow. Mostly cloudy.6 mph100%29.56 "Hg2 mi
12:50 AM27 °FLight snow. Mostly cloudy.7 mph93%29.56 "Hg2 mi
12:20 AM27 °FLight snow. Mostly cloudy.9 mph100%29.56 "Hg2 mi
11:50 PM
Dec 27
27 °FLight snow. Mostly cloudy.9 mph93%29.56 "Hg2 mi
11:20 PM27 °FLight snow. Mostly cloudy.10 mph93%29.53 "Hg2 mi
Weather by CustomWeather, © 2014

See weather overviewHow to use our weather pages